Regional Weather Roundup
Issued by NWS

Home | Current Version | Previous Version | Graphics & Text | Print | Product List | Glossary On
Versions: 1 2 3 4 5 6 7 8 9 10 11 12 13 14 15 16 17 18 19 20 21 22 23 24 25 26 27 28 29 30 31 32 33 34 35 36 37 38 39 40 41 42 43 44 45 46 47 48 49 50
000
ASUS43 KMKX 052100
RWRWI

WISCONSIN REGIONAL WEATHER ROUNDUP
NATIONAL WEATHER SERVICE MILWAUKEE/SULLIVAN WI
400 PM CDT TUE MAY 05 2015

NOTE: "FAIR" INDICATES FEW OR NO CLOUDS BELOW 12,000 FEET WITH NO
SIGNIFICANT WEATHER AND/OR OBSTRUCTIONS TO VISIBILITY.

WIZ001-002-006>008-014>016-023>028-052200-
NORTHWEST WISCONSIN

CITY           SKY/WX    TMP DP  RH WIND       PRES   REMARKS
SUPERIOR ARPT  SUNNY     55  32  41 NE9       30.19F
ASHLAND        SUNNY     67  40  37 NE14      30.19F
HAYWARD        SUNNY     72  26  18 S14G23    30.18F
SIREN          SUNNY     73  31  21 SE10      30.17F
CUMBERLAND     SUNNY     70  30  23 SE13G24   30.19F
RICE LAKE      SUNNY     72  30  21 SE15G24   30.20F
CHETEK         SUNNY     70  35  27 E16G24    30.20F
LADYSMITH      SUNNY     71  29  20 SE12G17   30.23S
EAU CLAIRE     NOT AVBL
MENOMONIE      PTSUNNY   68  33  27 SE14      30.20S
NEW RICHMOND   PTSUNNY   69  38  31 SE10G18   30.18F
OSCEOLA        MOSUNNY   71  40  32 E17G28    30.19F
$$

WIZ003>005-009-010-017-018-052200-
NORTH CENTRAL WISCONSIN

CITY           SKY/WX    TMP DP  RH WIND       PRES   REMARKS
MANITOWISH WTR SUNNY     69  31  24 S8        30.22F
ARBOR VITAE    SUNNY     72  30  20 SE9       30.23S
WOODRUFF       SUNNY     72  30  20 SE9       30.23S
RHINELANDER    SUNNY     68  29  23 S5G20     30.25S
EAGLE RIVER    SUNNY     69  24  18 SE5G10    30.23F
LAND O LAKES   SUNNY     72  24  16 S9        30.24F
PHILLIPS         N/A    N/A N/A N/A MISG        N/A
TOMAHAWK       SUNNY     69  27  20 SE5       30.24F
MEDFORD        MOSUNNY   66  25  21 SE15      30.24S
MERRILL        MOSUNNY   68  25  19 SE12G18   30.25S
$$

WIZ029-030-035-036-043>047-052200-
CENTRAL WISCONSIN

CITY           SKY/WX    TMP DP  RH WIND       PRES   REMARKS
WAUSAU         MOSUNNY   68  22  17 SE15G21   30.23F
MOSINEE        SUNNY     64  21  19 SE16      30.26S
MARSHFIELD     CLOUDY    65  32  29 SE15      30.24F
STEVENS POINT  PTSUNNY   63  24  23 E14       30.26S
WAUPACA          N/A     66  32  28 E12       30.27S
WAUTOMA        NOT AVBL
WISC RAPIDS    CLOUDY    64  33  31 SE14      30.25F
CAMP DOUGLAS   NOT AVBL
$$

WIZ011>013-019>022-031-037>040-048>050-052200-
NORTHEAST WISCONSIN

CITY           SKY/WX    TMP DP  RH WIND       PRES   REMARKS
ANTIGO         MOSUNNY   65  28  24 S12G17    30.27S
SHAWANO        PTSUNNY   67  20  16 E14G20    30.28S
OCONTO         MOSUNNY   64  26  24 E8        30.29S
STURGEON BAY   MOSUNNY   63  25  23 E7        30.31F
GREEN BAY      PTSUNNY   65  21  18 SE13      30.28F
MANITOWOC      NOT AVBL
APPLETON       PTSUNNY   64  34  32 SE12      30.27F
CLINTONVILLE   CLOUDY    64  18  16 SE10      30.27S
OSHKOSH        CLOUDY    60  45  57 SE9       30.26F
$$

WIZ032>034-041-042-053>061-052200-
SOUTHWEST WISCONSIN

CITY           SKY/WX    TMP DP  RH WIND       PRES   REMARKS
LA CROSSE      LGT RAIN  58  51  78 SE8       30.21F
SPARTA         CLOUDY    58  49  69 E9        30.24F
VIROQUA        CLOUDY    52  52 100 E14       30.22F
BOSCOBEL       LGT RAIN  55  53  93 VRB3      30.21F FOG
PRAIRIE DU CHI CLOUDY    54  53  96 E8        30.20F
PLATTEVILLE    CLOUDY    56  54  94 E14G21    30.20F
$$

WIZ056-057-062-063-064-067-068-052200-
SOUTH CENTRAL WISCONSIN

CITY           SKY/WX    TMP DP  RH WIND       PRES   REMARKS
REEDSBURG      DRIZZLE   53  51  92 E6        30.24F
BARABOO/DELLS  NOT AVBL
LONE ROCK      NOT AVBL
MINERAL POINT  CLOUDY    55  52  88 E12       30.21F
MADISON        LGT RAIN  55  50  83 E10       30.23F
MIDDLETON      CLOUDY    56  52  88 E10       30.25S
WATERTOWN      CLOUDY    55  52  88 E12       30.25F
MONROE         CLOUDY    52  52 100 E9        30.22F
JANESVILLE     LGT RAIN  54  52  94 E12G17    30.22
$$

WIZ051-052-058>065-066-070>072-052200-
SOUTHEAST WISCONSIN

CITY           SKY/WX    TMP DP  RH WIND       PRES   REMARKS
MILWAUKEE      CLOUDY    48  44  86 E9        30.27F
WAUKESHA       CLOUDY    48  45  87 E10       30.27F
MILWAUKEE/TIMM CLOUDY    50  43  76 E8        30.28F
RACINE         LGT RAIN  47  44  90 NE10      30.27F
BURLINGTON     DRIZZLE   46  45  95 E9        30.26F
KENOSHA        LGT RAIN  47  45  93 NE13      30.26F
FOND DU LAC    CLOUDY    57  45  64 SE10      30.26F
SHEBOYGAN      PTSUNNY   56  45  66 SE6       30.28F
WEST BEND      CLOUDY    52  41  66 E9        30.27F
JUNEAU         CLOUDY    56  49  78 E14       30.26F
$$

LSZ147-162-052200-
LAKE SUPERIOR

STATION/POSITION TIME  TEMP    WIND        PRES    WAVE
                       AIR SEA DIR/SP/G            HT/PER
                 (UTC) (F)     (DEG/KT/KT) (MB)    (FT/S)
W MID LAKE BUOY  1950   39 36   30/  8/ 10 1025.2F   0
DEVILS ISLAND    2000   43      60/ 10/ 12 1024.3F
PORT WING        2040   46      20/ 19/ 23 1021.7F
SAXON HARBOR     2000   48     330/  2/  6 1023.4
$$

LMZ867-665-643>646-052200-
LAKE MICHIGAN

STATION/POSITION TIME  TEMP    WIND        PRES    WAVE
                       AIR SEA DIR/SP/G            HT/PER
                 (UTC) (F)     (DEG/KT/KT) (MB)    (FT/S)
CHAMBERS ISLAND  2000   50     330/  4/  6 1026.4F
NORTHPORT PIER   2000   50     130/  4/  5 1026.4F
SISTER BAY       2017   69     120/  9/ 13   N/A
KEWAUNEE LAKESHO 2000   47      40/  3/  6 1025.3F
SHEBOYGAN LAKESH 2000   44      10/  7/  8 1026.6F
PORT WASHINGTON  2000   49      40/  6/  7 1026.4
ATWATER BUOY     2000   45     350/  6/  8 1026.8F
MILWAUKEE LAKESH 2000   45      40/  8/  9   N/A
KENOSHA   LAKESH 2000   44      30/ 13/ 16 1024.7F
$$

TC  - TEMPERATURE IN CELSIUS
VSB - VISIBILITY IN STATUTE MILES
WCI - WIND CHILL INDEX
HX  - HEAT INDEX




USA.gov is the U.S. government's official web portal to all federal, state and local government web resources and services.